BEL3095 EBBR-GCTS

Flight info

Callsign BEL3095
Flight time N/A
Altitude 33000
Route CIV2X CIV N872 LESDO DCT KOVIN DCT DUCRA/N0455F350 UM728 RESMI UN857 DISAK DCT ARKIP DCT ARNAV DCT LMG DCT UVELI DCT OSMOB DCT VAVIX DCT NETUK DCT PPN DCT NOLSA N857 KORNO UN857 ABODA/N0454F370 UN857 TERTO TERTO2U
Aircraft A320/M-SDE3FGHIRWY/LB1

Departure

Time 2026-05-05 11:36
Airport Brussels Airport (EBBR)

Arrival

Time N/A
Airport Tenerife Sur Airport (GCTS)
Time Latitude Longitude Altitude Speed Heading
2026-05-05 11:13 50.90230 4.48406 121 ft 0 kts 335°
2026-05-05 11:19 50.90190 4.48300 119 ft 0 kts 335°
2026-05-05 11:26 50.90180 4.48307 117 ft 4 kts 333°
2026-05-05 11:26 50.90156 4.48327 120 ft 4 kts 332°
2026-05-05 11:26 50.90133 4.48344 119 ft 4 kts 355°
2026-05-05 11:26 50.90119 4.48341 120 ft 1 kts 65°
2026-05-05 11:27 50.90119 4.48340 120 ft 1 kts 65°
2026-05-05 11:29 50.90119 4.48343 120 ft 2 kts 65°
2026-05-05 11:29 50.90151 4.48451 124 ft 15 kts 65°
2026-05-05 11:29 50.90197 4.48610 121 ft 16 kts 65°
2026-05-05 11:30 50.90245 4.48777 120 ft 17 kts 65°
2026-05-05 11:30 50.90295 4.48952 122 ft 18 kts 65°
2026-05-05 11:30 50.90348 4.49134 122 ft 19 kts 65°
2026-05-05 11:30 50.90401 4.49316 121 ft 14 kts 66°
2026-05-05 11:31 50.90411 4.49434 124 ft 11 kts 106°
2026-05-05 11:31 50.90368 4.49520 123 ft 10 kts 144°
2026-05-05 11:31 50.90303 4.49530 125 ft 14 kts 191°
2026-05-05 11:31 50.90181 4.49481 127 ft 17 kts 195°
2026-05-05 11:32 50.90081 4.49440 130 ft 14 kts 194°
2026-05-05 11:32 50.89954 4.49389 133 ft 24 kts 195°
2026-05-05 11:32 50.89808 4.49330 142 ft 18 kts 194°
2026-05-05 11:32 50.89709 4.49287 148 ft 12 kts 195°
2026-05-05 11:33 50.89639 4.49259 153 ft 10 kts 197°
2026-05-05 11:33 50.89577 4.49197 156 ft 14 kts 209°
2026-05-05 11:33 50.89500 4.49163 160 ft 9 kts 193°
2026-05-05 11:33 50.89424 4.49131 163 ft 16 kts 195°
2026-05-05 11:34 50.89326 4.49091 167 ft 12 kts 194°
2026-05-05 11:34 50.89246 4.49058 172 ft 12 kts 195°
2026-05-05 11:34 50.89191 4.49035 175 ft 5 kts 195°
2026-05-05 11:34 50.89167 4.49025 176 ft 5 kts 194°
2026-05-05 11:35 50.89143 4.49047 176 ft 7 kts 108°
2026-05-05 11:35 50.89167 4.49177 176 ft 23 kts 69°
2026-05-05 11:35 50.89313 4.49806 177 ft 95 kts 70°
2026-05-05 11:35 50.89612 4.51094 184 ft 150 kts 65°
2026-05-05 11:36 50.89953 4.52693 739 ft 153 kts 67°
2026-05-05 11:36 50.90350 4.54251 1487 ft 154 kts 62°
2026-05-05 11:36 50.90927 4.55675 2113 ft 155 kts 42°
2026-05-05 11:36 50.91919 4.56544 2366 ft 175 kts 15°
2026-05-05 11:37 50.93198 4.56598 2631 ft 197 kts 349°
2026-05-05 11:37 50.94489 4.55530 2826 ft 228 kts 317°
2026-05-05 11:37 50.95260 4.53196 3128 ft 258 kts 282°
2026-05-05 11:37 50.95476 4.50286 3709 ft 270 kts 278°
2026-05-05 11:38 50.95677 4.47303 4543 ft 273 kts 278°
2026-05-05 11:38 50.95833 4.44278 5323 ft 279 kts 269°
2026-05-05 11:38 50.95270 4.41329 6068 ft 283 kts 237°
2026-05-05 11:38 50.93963 4.39000 6834 ft 284 kts 224°
2026-05-05 11:39 50.92538 4.36812 7614 ft 286 kts 224°
2026-05-05 11:39 50.91100 4.34617 8366 ft 289 kts 224°
2026-05-05 11:39 50.89643 4.32397 9142 ft 291 kts 224°
2026-05-05 11:39 50.88201 4.30193 9894 ft 293 kts 224°
2026-05-05 11:40 50.86704 4.27896 10266 ft 310 kts 224°
2026-05-05 11:40 50.85101 4.25434 10407 ft 332 kts 224°
2026-05-05 11:40 50.83385 4.22802 10536 ft 354 kts 224°
2026-05-05 11:40 50.81563 4.20010 10677 ft 374 kts 224°
2026-05-05 11:41 50.79674 4.17115 11132 ft 382 kts 223°
2026-05-05 11:41 50.77747 4.14164 11612 ft 389 kts 223°
2026-05-05 11:41 50.75788 4.11176 12171 ft 393 kts 223°
2026-05-05 11:41 50.73813 4.08168 12796 ft 396 kts 223°
2026-05-05 11:42 50.71822 4.05142 13388 ft 399 kts 223°
2026-05-05 11:42 50.69816 4.02094 13931 ft 403 kts 223°
2026-05-05 11:42 50.67791 3.99016 14482 ft 405 kts 223°
2026-05-05 11:42 50.65760 3.95930 15048 ft 407 kts 222°
2026-05-05 11:43 50.63719 3.92832 15588 ft 409 kts 222°
2026-05-05 11:43 50.61663 3.89720 16145 ft 411 kts 222°
2026-05-05 11:43 50.59596 3.86604 16700 ft 412 kts 221°
2026-05-05 11:43 50.57397 3.83805 17218 ft 412 kts 212°
2026-05-05 11:44 50.54900 3.81581 17725 ft 413 kts 203°
2026-05-05 11:44 50.52261 3.79788 18228 ft 414 kts 202°
2026-05-05 11:44 50.49607 3.77988 18665 ft 416 kts 202°
2026-05-05 11:44 50.46943 3.76174 19114 ft 418 kts 202°
2026-05-05 11:45 50.44276 3.74350 19519 ft 420 kts 202°
2026-05-05 11:45 50.41591 3.72515 19912 ft 422 kts 202°
2026-05-05 11:45 50.38894 3.70677 20320 ft 423 kts 202°
2026-05-05 11:45 50.36192 3.68837 20712 ft 425 kts 202°
2026-05-05 11:46 50.33478 3.66992 21074 ft 427 kts 202°
2026-05-05 11:46 50.30749 3.65145 21452 ft 428 kts 202°
2026-05-05 11:46 50.28014 3.63301 21823 ft 429 kts 202°
2026-05-05 11:46 50.25263 3.61454 22138 ft 431 kts 202°
2026-05-05 11:47 50.22504 3.59604 22473 ft 433 kts 202°
2026-05-05 11:47 50.19731 3.57741 22819 ft 434 kts 202°
2026-05-05 11:47 50.16952 3.55877 23142 ft 436 kts 202°
2026-05-05 11:47 50.14153 3.54004 23441 ft 438 kts 202°
2026-05-05 11:48 50.08529 3.50243 23969 ft 441 kts 202°
2026-05-05 11:48 50.05701 3.48349 24203 ft 443 kts 202°
2026-05-05 11:48 50.02866 3.46452 24468 ft 443 kts 202°
2026-05-05 11:49 50.00030 3.44556 24714 ft 444 kts 202°
2026-05-05 11:49 49.97182 3.42656 24938 ft 446 kts 202°
2026-05-05 11:49 49.94327 3.40753 25173 ft 447 kts 202°
2026-05-05 11:49 49.91466 3.38850 25416 ft 448 kts 202°
2026-05-05 11:50 49.88597 3.36945 25597 ft 450 kts 202°
2026-05-05 11:50 49.85712 3.35034 25811 ft 451 kts 202°
2026-05-05 11:50 49.82819 3.33124 26008 ft 452 kts 202°
2026-05-05 11:50 49.79922 3.31214 26191 ft 453 kts 202°
2026-05-05 11:51 49.77030 3.29306 26450 ft 452 kts 202°
2026-05-05 11:51 49.74179 3.27427 26711 ft 451 kts 202°
2026-05-05 11:51 49.71296 3.25529 26978 ft 450 kts 202°
2026-05-05 11:51 49.68420 3.23631 27262 ft 449 kts 202°
2026-05-05 11:52 49.65554 3.21738 27539 ft 448 kts 202°
2026-05-05 11:52 49.62693 3.19854 27835 ft 446 kts 202°
2026-05-05 11:52 49.59840 3.17988 28133 ft 445 kts 202°
2026-05-05 11:52 49.56995 3.16134 28408 ft 444 kts 202°
2026-05-05 11:53 49.54151 3.14279 28694 ft 443 kts 202°
2026-05-05 11:53 49.51311 3.12426 28971 ft 442 kts 201°
2026-05-05 11:53 49.48512 3.10447 29208 ft 443 kts 207°
2026-05-05 11:53 49.45896 3.07918 29476 ft 444 kts 212°
2026-05-05 11:54 49.43321 3.05285 29755 ft 443 kts 212°
2026-05-05 11:54 49.40790 3.02705 30020 ft 442 kts 211°
2026-05-05 11:54 49.38228 3.00099 30253 ft 441 kts 211°
2026-05-05 11:54 49.35667 2.97502 30520 ft 440 kts 211°
2026-05-05 11:55 49.33143 2.94947 30683 ft 429 kts 211°
2026-05-05 11:55 49.30678 2.92455 30805 ft 424 kts 211°
2026-05-05 11:55 49.28195 2.89953 30934 ft 430 kts 211°
2026-05-05 11:55 49.25684 2.87427 31073 ft 434 kts 211°
2026-05-05 11:56 49.23156 2.84885 31255 ft 436 kts 211°
2026-05-05 11:56 49.20618 2.82334 31460 ft 436 kts 211°
2026-05-05 11:56 49.18086 2.79789 31690 ft 435 kts 211°
2026-05-05 11:56 49.15560 2.77255 31933 ft 434 kts 211°
2026-05-05 11:57 49.13041 2.74727 32167 ft 433 kts 211°
2026-05-05 11:57 49.10521 2.72204 32402 ft 432 kts 211°
2026-05-05 11:57 49.08011 2.69697 32638 ft 431 kts 211°
2026-05-05 11:57 49.05502 2.67193 32822 ft 431 kts 211°
2026-05-05 11:58 49.00450 2.62155 32867 ft 437 kts 211°
2026-05-05 11:58 48.95352 2.57080 32862 ft 438 kts 211°
2026-05-05 11:59 48.90250 2.52005 32866 ft 438 kts 211°
2026-05-05 11:59 48.85142 2.46938 32863 ft 439 kts 211°
2026-05-05 12:00 48.80026 2.41891 32832 ft 438 kts 211°
2026-05-05 12:00 48.74945 2.36905 32833 ft 438 kts 210°
2026-05-05 12:01 48.69821 2.31885 32836 ft 439 kts 211°
2026-05-05 12:01 48.64701 2.26857 32834 ft 438 kts 211°
2026-05-05 12:02 48.59583 2.21858 32824 ft 438 kts 209°
2026-05-05 12:02 48.55009 2.18704 32840 ft 434 kts 195°
2026-05-05 12:03 48.49125 2.16696 32814 ft 433 kts 190°
2026-05-05 12:03 48.42266 2.14481 32820 ft 434 kts 190°
2026-05-05 12:04 48.37306 2.12879 32816 ft 436 kts 190°
2026-05-05 12:04 48.31371 2.10986 32806 ft 436 kts 188°
2026-05-05 12:05 48.25400 2.10626 32803 ft 432 kts 172°
2026-05-05 12:05 48.19441 2.11895 32811 ft 432 kts 170°
2026-05-05 12:06 48.13455 2.12911 32804 ft 435 kts 178°
2026-05-05 12:06 48.07413 2.12025 32810 ft 437 kts 185°
2026-05-05 12:07 48.01367 2.10853 32814 ft 438 kts 185°
2026-05-05 12:07 47.95315 2.09707 32824 ft 439 kts 185°
2026-05-05 12:08 47.89247 2.08555 32822 ft 440 kts 185°
2026-05-05 12:08 47.83170 2.07399 32823 ft 440 kts 185°
2026-05-05 12:09 47.77095 2.06241 32817 ft 441 kts 185°
2026-05-05 12:09 47.71004 2.05094 32806 ft 441 kts 185°
2026-05-05 12:10 47.64911 2.03915 32804 ft 443 kts 188°
2026-05-05 12:10 47.59017 2.01149 32811 ft 446 kts 199°
2026-05-05 12:11 47.53238 1.97776 32823 ft 446 kts 199°
2026-05-05 12:11 47.47484 1.94442 32826 ft 447 kts 199°
2026-05-05 12:12 47.41692 1.91095 32841 ft 447 kts 199°
2026-05-05 12:12 47.35900 1.87766 32842 ft 447 kts 199°
2026-05-05 12:13 47.30098 1.84440 32859 ft 447 kts 199°
2026-05-05 12:13 47.24300 1.81111 32847 ft 448 kts 199°
2026-05-05 12:14 47.18484 1.77784 32847 ft 448 kts 199°
2026-05-05 12:14 47.12672 1.74505 32857 ft 447 kts 198°
2026-05-05 12:15 47.06860 1.71243 32865 ft 447 kts 199°
2026-05-05 12:15 47.01050 1.67982 32865 ft 447 kts 199°
2026-05-05 12:16 46.95245 1.64731 32871 ft 446 kts 199°
2026-05-05 12:16 46.89476 1.61509 32869 ft 447 kts 199°
2026-05-05 12:17 46.83667 1.58275 32868 ft 447 kts 199°
2026-05-05 12:17 46.77857 1.55051 32854 ft 447 kts 198°
2026-05-05 12:18 46.72049 1.51829 32858 ft 447 kts 199°
2026-05-05 12:18 46.66239 1.48605 32861 ft 447 kts 199°
2026-05-05 12:19 46.60428 1.45392 32864 ft 447 kts 198°
2026-05-05 12:19 46.54608 1.42193 32882 ft 447 kts 199°
2026-05-05 12:20 46.48846 1.39022 32901 ft 445 kts 199°
2026-05-05 12:20 46.43055 1.35842 32899 ft 445 kts 199°
2026-05-05 12:21 46.37269 1.32675 32906 ft 444 kts 199°
2026-05-05 12:21 46.31494 1.29520 32914 ft 443 kts 199°
2026-05-05 12:22 46.25727 1.26380 32904 ft 443 kts 200°
2026-05-05 12:22 46.19965 1.23244 32918 ft 442 kts 200°
2026-05-05 12:23 46.14207 1.20113 32916 ft 442 kts 200°
2026-05-05 12:23 46.08455 1.16999 32916 ft 442 kts 200°
2026-05-05 12:24 46.02699 1.13901 32914 ft 441 kts 199°
2026-05-05 12:24 45.96945 1.10807 32912 ft 442 kts 200°
2026-05-05 12:25 45.91189 1.07712 32919 ft 442 kts 200°
2026-05-05 12:25 45.85426 1.04613 32921 ft 442 kts 200°
2026-05-05 12:26 45.79990 1.00573 32916 ft 442 kts 216°
2026-05-05 12:26 45.75251 0.94952 32919 ft 442 kts 219°
2026-05-05 12:27 45.70567 0.89342 32922 ft 442 kts 219°
2026-05-05 12:27 45.65846 0.83714 32930 ft 442 kts 219°
2026-05-05 12:28 45.61127 0.78097 32937 ft 442 kts 219°
2026-05-05 12:28 45.56402 0.72475 32941 ft 442 kts 219°
2026-05-05 12:29 45.51675 0.66870 32957 ft 442 kts 219°
2026-05-05 12:29 45.46951 0.61279 32959 ft 441 kts 219°
2026-05-05 12:30 45.42223 0.55709 32962 ft 441 kts 219°
2026-05-05 12:30 45.37498 0.50151 32965 ft 440 kts 219°
2026-05-05 12:31 45.32783 0.44605 32971 ft 439 kts 219°
2026-05-05 12:31 45.28077 0.39074 32973 ft 439 kts 219°
2026-05-05 12:32 45.23366 0.33557 32962 ft 439 kts 219°
2026-05-05 12:32 45.18644 0.28043 32956 ft 440 kts 219°
2026-05-05 12:33 45.13922 0.22545 32962 ft 439 kts 219°
2026-05-05 12:33 45.09203 0.17065 32964 ft 439 kts 219°
2026-05-05 12:34 45.04517 0.11636 32970 ft 438 kts 219°
2026-05-05 12:34 44.99798 0.06173 32967 ft 438 kts 219°
2026-05-05 12:35 44.95087 0.00736 32975 ft 436 kts 219°
2026-05-05 12:35 44.90380 -0.04686 32980 ft 436 kts 219°
2026-05-05 12:36 44.85677 -0.10096 32963 ft 436 kts 219°
2026-05-05 12:36 44.80965 -0.15497 32958 ft 436 kts 219°
2026-05-05 12:37 44.76255 -0.20894 32958 ft 436 kts 219°
2026-05-05 12:37 44.71576 -0.26245 32956 ft 436 kts 219°
2026-05-05 12:38 44.66858 -0.31616 32957 ft 436 kts 219°
2026-05-05 12:38 44.62054 -0.36825 32956 ft 436 kts 216°
2026-05-05 12:39 44.57038 -0.41614 32964 ft 436 kts 214°
2026-05-05 12:39 44.51974 -0.46298 32967 ft 435 kts 214°
2026-05-05 12:40 44.46962 -0.51040 32964 ft 435 kts 214°
2026-05-05 12:40 44.41974 -0.55835 32959 ft 435 kts 215°
2026-05-05 12:41 44.36998 -0.60613 32978 ft 433 kts 215°
2026-05-05 12:41 44.32064 -0.65330 32987 ft 432 kts 215°
2026-05-05 12:42 44.27102 -0.70051 32987 ft 432 kts 214°
2026-05-05 12:42 44.22105 -0.74691 32975 ft 431 kts 214°
2026-05-05 12:43 44.17080 -0.79268 32993 ft 431 kts 214°
2026-05-05 12:43 44.12058 -0.83848 32984 ft 432 kts 214°
2026-05-05 12:44 44.07037 -0.88447 32980 ft 432 kts 214°
2026-05-05 12:44 44.02022 -0.93042 32974 ft 432 kts 214°
2026-05-05 12:45 43.97005 -0.97625 32991 ft 431 kts 214°
2026-05-05 12:45 43.91987 -1.02191 32995 ft 431 kts 214°
2026-05-05 12:46 43.88667 -1.05212 32998 ft 431 kts 214°